Regional Weather Roundup
Issued by NWS Columbia, SC

Home | Current Version | Previous Version | Text Only | Print | Product List | Glossary On
Versions: 1 2 3 4 5 6 7 8 9 10 11 12 13 14 15 16 17 18 19 20 21 22 23 24 25 26 27 28 29 30 31 32 33 34 35 36 37 38 39 40 41 42 43 44 45 46 47 48 49 50
000
ASUS42 KCAE 290010
RWRCAE
REGIONAL WEATHER ROUNDUP
NATIONAL WEATHER SERVICE COLUMBIA SC
800 PM EDT MON JUL 28 2014

NOTE: "FAIR" INDICATES FEW OR NO CLOUDS BELOW 12,000 FEET WITH NO
SIGNIFICANT WEATHER AND/OR OBSTRUCTIONS TO VISIBILITY.

NOT ALL STATIONS ARE QUALITY CONTROLLED BY THE NATIONAL
WEATHER SERVICE. USE DATA WITH CAUTION...ESPECIALLY
DEWPOINT OBSERVATIONS.

SCZ001>056-GAZ040-063>065-077-290100-
...UPSTATE SOUTH CAROLINA...

CITY           SKY/WX    TMP DP  RH WIND       PRES   REMARKS
ANDERSON       CLEAR     83  55  38 NW10      29.89R
6HR MIN TEMP:  83; 6HR MAX TEMP:  91;

LIBERTY        FAIR      81  78  89 NW5       29.89S
6HR MIN TEMP:  74; 6HR MAX TEMP:  91;

SPARTANBURG    FAIR      82  57  42 N9        29.87R
CLEMSON        CLEAR     83  53  35 NW9       29.91R
6HR MIN TEMP:  83; 6HR MAX TEMP:  91;

GREENVILLE     PTCLDY    82  57  42 N10       29.90R
6HR MIN TEMP:  82; 6HR MAX TEMP:  92; 6HR PCP: TRACE;

GREENWOOD      CLEAR     86  56  35 W6        29.88R
6HR MIN TEMP:  86; 6HR MAX TEMP:  94;

GREER          CLEAR     80  57  45 N8        29.88R
6HR MIN TEMP:  80; 6HR MAX TEMP:  91;

ROCK HILL      MOCLDY    81  58  45 N6        29.87R
6HR MIN TEMP:  81; 6HR MAX TEMP:  90;

CHESTER        MOCLDY    82  61  47 N3        29.87R
LAURENS        FAIR      82  59  44 N5        29.88S


...CENTRAL SOUTH CAROLINA...

CITY           SKY/WX    TMP DP  RH WIND       PRES   REMARKS
COLUMBIA APT   PTCLDY    93  56  28 NW12      29.80R
6HR MIN TEMP:  93; 6HR MAX TEMP: 101;

COLUMBIA OWENS CLEAR     93  55  27 NW8       29.81R
6HR MIN TEMP:  93; 6HR MAX TEMP:  99;

DARLINGTON     PTCLDY    86  64  48 N9        29.81R
6HR MIN TEMP:  86; 6HR MAX TEMP:  93;

MCENTIRE ANGB  PTCLDY    88  61  40 NW10      29.81R
6HR MIN TEMP:  88; 6HR MAX TEMP:  96;

ORANGEBURG     CLEAR     89  71  55 W6        29.81R HX  95
6HR MIN TEMP:  89; 6HR MAX TEMP:  95;

SUMTER SHAW    CLEAR     90  62  39 W6        29.79R
6HR MIN TEMP:  90; 6HR MAX TEMP:  96;

NEWBERRY       FAIR      82  57  42 N8        29.89R
AIKEN          FAIR      88  61  40 W8        29.87R
BARNWELL       FAIR      91  72  52 W6        29.82R HX  98
MANNING        FAIR      86  72  62 CALM      29.79R
CAMDEN         FAIR      86  61  42 N8        29.83R
LANCASTER      FAIR      82  59  44 N3        29.85R
WINNSBORO      FAIR      86  57  37 N10       29.85R


...EASTERN AND COASTAL SOUTH CAROLINA...

CITY           SKY/WX    TMP DP  RH WIND       PRES   REMARKS
MYRTLE BEACH   TSTM      73  66  78 W12       29.79R
N MYRTLE BCH   CLOUDY    77  72  84 NE6       29.80R THUNDER
6HR MIN TEMP:  73; 6HR MAX TEMP:  92; 6HR PCP:  0.38;

CONWAY         FAIR      77  77 100 SE3       29.79R FOG
MARION         FAIR      81  75  83 CALM      29.79S
HARTSVILLE     FAIR      88  32  13 N5        29.83R
DARLINGTON     PTCLDY    86  64  48 N9        29.81R
6HR MIN TEMP:  86; 6HR MAX TEMP:  93;

CHARLESTON APT MOCLDY    88  76  67 SW9       29.80R HX  99
6HR MIN TEMP:  88; 6HR MAX TEMP:  96; 6HR PCP: TRACE;

MOUNT PLEASANT FAIR      88  77  70 SW6       29.80R HX 100
WALTERBORO       N/A     84  68  58 SW5       29.83R
BEAUFORT       MOCLDY    85  79  82 W3        29.82R HX  98
6HR MIN TEMP:  76; 6HR MAX TEMP:  96; 6HR PCP:  0.38;



...EASTERN GEORGIA...

CITY           SKY/WX    TMP DP  RH WIND       PRES   REMARKS
AUGUSTA BUSH F CLEAR     90  62  39 NW13      29.81R
6HR MIN TEMP:  90; 6HR MAX TEMP:  95;

AUGUSTA DANIEL CLEAR     92  60  34 NW10      29.84R
6HR MIN TEMP:  92; 6HR MAX TEMP:  97;

THOMSON        CLEAR     87  70  55 NW6       29.90R
6HR MIN TEMP:  87; 6HR MAX TEMP:  96;

WASHINGTON     FAIR      88  64  45 NW9       29.88R
CLAXTON        FAIR      81  77  89 CALM      29.84F
SYLVANIA       TSTM      86  78  75 NE17G23   29.84R HX  98
STATESBORO     PTCLDY    84  71  65 CALM      29.84S
6HR MIN TEMP:  79; 6HR MAX TEMP:  95;

SAVANNAH       MOCLDY    90  72  55 W18       29.84R HX  97
6HR MIN TEMP:  87; 6HR MAX TEMP:  98;



...SOUTHERN NORTH CAROLINA...

CITY           SKY/WX    TMP DP  RH WIND       PRES   REMARKS
CHARLOTTE      PTCLDY    80  56  43 N9        29.87R
6HR MIN TEMP:  80; 6HR MAX TEMP:  90;

MONROE         PTCLDY    82  58  43 N6        29.85R
6HR MIN TEMP:  82; 6HR MAX TEMP:  91;

WADESBORO      PTCLDY    82  58  43 NW5       29.83R
6HR MIN TEMP:  82; 6HR MAX TEMP:  92;

ROCKINGHAM       N/A     84  61  45 NW7       29.83R
RUTHERFORDTON  PTCLDY    78  59  51 NW3       29.91R
6HR MIN TEMP:  78; 6HR MAX TEMP:  85;

ASHEVILLE      PTCLDY    73  56  54 N14       29.97R
6HR MIN TEMP:  73; 6HR MAX TEMP:  80;


$$


USA.gov is the U.S. government's official web portal to all federal, state and local government web resources and services.